Leesburg, FL

6:17 PM EDT on September 26, 2016 (GMT -0400)
Leesburg Regional

Weather History for KLEE - January, 2013

Change the Weather History Date:

Wednesday, January 30, 2013

  Actual Average Record
Temperature  
Mean Temperature 75 °F -  
Max Temperature 84 °F 70 °F 84 °F (2013)
Min Temperature 66 °F 45 °F 25 °F (1966)
Cooling Degree Days 10    
Growing Degree Days 25 (Base 50)    
Moisture  
Dew Point 63 °F    
Average Humidity 71    
Maximum Humidity 93    
Minimum Humidity 46    
Precipitation  
Precipitation 0.00 in - - ()
Sea Level Pressure  
Sea Level Pressure 30.00 in    
Wind  
Wind Speed 10 mph (South)    
Max Wind Speed 18 mph    
Max Gust Speed 29 mph    
Visibility 10 miles    
Events      
Averages and records for this station are not official NWS values.
T = Trace of Precipitation, MM = Missing Value Source: NWS Daily Summary

Daily Weather History Graph

Daily Weather History Graph

Search for Another Location

Airport or City:

Trip Planner

Search our weather history database for the weather conditions in past years. The results will help you decide how hot, cold, wet, or windy it might be!

Date:

Astronomy

Jan. 30, 2013 Rise Set
Actual Time 7:16 AM EST 6:04 PM EST
Civil Twilight 6:51 AM EST 6:29 PM EST
Nautical Twilight 6:23 AM EST 6:58 PM EST
Astronomical Twilight 5:55 AM EST 7:26 PM EST
Moon 9:37 PM EST (1/30) 9:05 AM EST (1/30)
Length of Visible Light 11h 38m
Length of Day
10h 48m
Waning Gibbous, 88% of the Moon is Illuminated
Jan 30
Waning Gibbous
Feb 3
Last Quarter
Feb 10
New
Feb 17
First Quarter
Feb 25
Full

Hourly Weather History & Observations

Time (EST) Temp. Heat Index Dew Point Humidity Pressure Visibility Wind Dir Wind Speed Gust Speed Precip Events Conditions
12:53 AM 70.0 °F - 66.0 °F 87% 30.12 in 10.0 mi SSE 8.1 mph - N/A   Mostly Cloudy
1:53 AM 70.0 °F - 64.9 °F 84% 30.12 in 10.0 mi SSE 6.9 mph - N/A   Partly Cloudy
2:53 AM 69.1 °F - 64.9 °F 87% 30.10 in 10.0 mi SSE 8.1 mph - N/A   Clear
3:53 AM 68.0 °F - 64.9 °F 90% 30.09 in 10.0 mi South 4.6 mph - N/A   Clear
4:53 AM 66.9 °F - 64.0 °F 90% 30.08 in 10.0 mi South 4.6 mph - N/A   Clear
5:53 AM 66.9 °F - 64.9 °F 93% 30.07 in 10.0 mi SE 4.6 mph - N/A   Clear
6:53 AM 66.9 °F - 64.9 °F 93% 30.07 in 9.0 mi SSE 6.9 mph - N/A   Clear
7:53 AM 66.9 °F - 64.0 °F 90% 30.06 in 10.0 mi South 8.1 mph - N/A   Clear
8:53 AM 70.0 °F - 64.0 °F 81% 30.05 in 10.0 mi South 9.2 mph - N/A   Clear
9:53 AM 73.9 °F - 64.0 °F 71% 30.04 in 10.0 mi South 12.7 mph 24.2 mph N/A   Partly Cloudy
10:34 AM 75.2 °F - 64.4 °F 69% 30.03 in 10.0 mi South 17.3 mph 28.8 mph N/A   Mostly Cloudy
10:53 AM 77.0 °F - 64.0 °F 64% 30.02 in 10.0 mi South 18.4 mph 26.5 mph N/A   Mostly Cloudy
11:13 AM 77.0 °F - 64.4 °F 65% 30.02 in 10.0 mi South 16.1 mph 21.9 mph N/A   Scattered Clouds
11:53 AM 80.1 °F 81.2 °F 62.1 °F 54% 30.01 in 10.0 mi South 12.7 mph 21.9 mph N/A   Partly Cloudy
12:53 PM 81.0 °F 82.2 °F 63.0 °F 54% 29.97 in 10.0 mi South 13.8 mph 20.7 mph N/A   Clear
1:53 PM 84.0 °F 84.4 °F 61.0 °F 46% 29.95 in 10.0 mi South 16.1 mph 21.9 mph N/A   Clear
2:53 PM 84.0 °F 84.4 °F 61.0 °F 46% 29.93 in 10.0 mi South 16.1 mph 23.0 mph N/A   Partly Cloudy
3:53 PM 82.9 °F 83.7 °F 62.1 °F 49% 29.93 in 10.0 mi SSW 12.7 mph 17.3 mph N/A   Partly Cloudy
4:53 PM 82.0 °F 83.0 °F 62.1 °F 51% 29.91 in 10.0 mi SSW 16.1 mph - N/A   Clear
5:53 PM 80.1 °F 81.2 °F 62.1 °F 54% 29.89 in 10.0 mi SSW 15.0 mph 24.2 mph N/A   Clear
6:53 PM 77.0 °F - 61.0 °F 58% 29.91 in 10.0 mi SSW 11.5 mph - N/A   Clear
7:53 PM 75.0 °F - 61.0 °F 62% 29.91 in 10.0 mi SSW 10.4 mph 20.7 mph N/A   Clear
8:53 PM 73.0 °F - 63.0 °F 71% 29.91 in 10.0 mi SSW 12.7 mph 18.4 mph N/A   Clear
9:53 PM 72.0 °F - 64.0 °F 76% 29.91 in 10.0 mi SSW 11.5 mph 20.7 mph N/A   Clear
10:53 PM 72.0 °F - 64.9 °F 78% 29.91 in 10.0 mi SSW 11.5 mph - N/A   Clear
11:53 PM 71.1 °F - 64.0 °F 78% 29.91 in 10.0 mi SSW 11.5 mph - N/A   Scattered Clouds